• MPC Preparation (Info)

  • MPEC 2014-W82 : 2014 WG200

    The following Minor Planet Electronic Circular may be linked-to from your own Web pages, but must not otherwise be redistributed electronically.

    A form allowing access to any MPEC is at the bottom of this page.


    Read MPEC 2014-W81 Read MPEC 2014-W83


    M.P.E.C. 2014-W82                                Issued 2014 Nov. 24, 02:45 UT
    
         The Minor Planet Electronic Circulars contain information on unusual
             minor planets and routine data on comets.  They are published
       on behalf of Commission 20 of the International Astronomical Union by the
              Minor Planet Center, Smithsonian Astrophysical Observatory,
                              Cambridge, MA 02138, U.S.A.
    
                 Prepared using the Tamkin Foundation Computer Network
    
                                  MPC@CFA.HARVARD.EDU
                URL https://www.minorplanetcenter.net/    ISSN 1523-6714
    
                                      2014 WG200
    
    Observations:
         K14WK0G* C2014 11 22.34274 04 31 02.05 +28 56 28.9          19.9 VqEW082G96
         K14WK0G  C2014 11 22.34783 04 31 05.07 +28 56 27.7          19.8 VqEW082G96
         K14WK0G  C2014 11 22.35293 04 31 08.08 +28 56 26.4          19.8 VqEW082G96
         K14WK0G  C2014 11 22.35803 04 31 11.11 +28 56 25.5          19.6 VqEW082G96
         K14WK0G  C2014 11 22.38690 04 31 28.15 +28 56 17.3          19.8 VqEW082G96
         K14WK0G  C2014 11 22.39485 04 31 32.83 +28 56 14.8          19.6 VqEW082G96
         K14WK0G  C2014 11 22.40159 04 31 36.88 +28 56 12.4          19.8 VqEW082G96
         K14WK0G  C2014 11 22.40833 04 31 40.86 +28 56 10.2          19.9 VqEW082G96
         K14WK0G  C2014 11 23.35515 04 41 23.88 +28 51 45.3          19.8 VqEW082G96
         K14WK0G  C2014 11 23.36058 04 41 26.82 +28 51 43.0          19.7 VqEW082G96
         K14WK0G  C2014 11 23.36602 04 41 29.81 +28 51 40.6          20.0 VqEW082G96
         K14WK0G  C2014 11 23.37145 04 41 32.76 +28 51 38.2          20.1 VqEW082G96
         K14WK0G KC2014 11 24.07910 04 48 18.01 +28 46 14.6          19.9  qEW082104
         K14WK0G KC2014 11 24.08996 04 48 23.67 +28 46 06.7          19.4  qEW082104
         K14WK0G KC2014 11 24.09494 04 48 26.37 +28 46 04.3          20.3  qEW082104
         K14WK0G KC2014 11 24.09715 04 48 27.53 +28 46 03.3          20.6  qEW082104
    
    Observer details:
    104 San Marcello Pistoiese.  Observer P. Bacci.  Measurers P. Bacci, L. Tesi,
        G. Fagioli.  0.60-m f/4 reflector + CCD.
    G96 Mt. Lemmon Survey.  Observer E. J. Christensen.  Measurers
        E. J. Christensen, A. R. Gibbs, A. D. Grauer, R. E. Hill, J. A. Johnson,
        R. A. Kowalski, R. G. Matheny, S. M. Larson, F. C. Shelly.  1.5-m
        reflector + CCD.
    
    Orbital elements:
    2014 WG200                                               Earth MOID = 0.0556 AU
    Epoch 2014 Dec. 9.0 TT = JDT 2457000.5                  MPC
    M   7.86605              (2000.0)            P               Q
    n   0.25772455     Peri.  125.68086     +0.71196528     -0.70208494
    a   2.4454879      Node   278.91799     +0.63977451     +0.65646166
    e   0.5724790      Incl.    0.78282     +0.28947195     +0.27592541
    P   3.82           H   24.6           G   0.15           U   8
    Residuals in seconds of arc
    141122 G96  0.1-  0.0     141122 G96  0.2+  0.1-    141124 104  0.0   0.7+
    141122 G96  0.1+  0.0     141122 G96  0.0   0.0     141124 104  0.7-  0.7-
    141122 G96  0.1+  0.1-    141123 G96  0.1+  0.0     141124 104  0.4+  0.1-
    141122 G96  0.3+  0.2+    141123 G96  0.2-  0.0     141124 104  0.3+  0.3+
    141122 G96  0.1-  0.1+    141123 G96  0.1+  0.1-
    141122 G96  0.5-  0.1+    141123 G96  0.1-  0.1-
    
    Ephemeris:
    2014 WG200               a,e,i = 2.45, 0.57, 1                   q = 1.0455
    Date    TT    R. A. (2000) Decl.     Delta      r     Elong.  Phase     V
    2014 10 25    23 03 34.4 +03 28 54   0.08988 1.0614   136.4    40.3    21.1
    ...
    2014 11 09    01 19 54.9 +20 32 16   0.05926 1.0455   157.1    21.6    19.6
    ...
    2014 11 17    03 23 04.3 +28 05 14   0.06301 1.0511   170.7     8.7    19.3
    ...
    2014 11 23    04 37 51.7 +28 53 53   0.07591 1.0616   166.6    12.4    19.9
    2014 11 24    04 47 36.3 +28 47 25   0.07868 1.0639   165.8    13.1    20.0
    2014 11 25    04 56 36.5 +28 38 43   0.08159 1.0663   165.1    13.7    20.1
    ...
    2014 12 01    05 37 27.5 +27 24 02   0.1015  1.0837   163.0    15.4    20.7
    ...
    2014 12 09    06 07 48.4 +25 44 04   0.1333  1.1140   164.7    13.5    21.2
    ...
    2014 12 24    06 30 14.3 +23 45 07   0.2067  1.1896   174.9     4.2    21.9
    
    A. U. Tomatic                (C) Copyright 2014 MPC           M.P.E.C. 2014-W82
    

    Read MPEC 2014-W81 Read MPEC 2014-W83


    MPEC number:

    Enter an MPEC number in one of the following forms:

    • 1997-B01 (the full form)
    • J97B01 (the packed version of the full form)
    • B01 (the abbreviated form)